AU056 Weather Reports


Display with metric or nautical units.
time (UTC)temp
F
wind
direction
speed
MPH
gust
MPH
rain 1hr
in
rain 24hr
in
rain mn
in
humidity
%
barometer
mb
20210927185556 82 297 5.0 9.0 0.00 0.00 0.00 49 1017.0
20210927185055 81 286 4.0 11.0 0.00 0.00 0.00 48 1017.1
20210927184628 81 236 6.0 13.0 0.00 0.00 0.00 47 1017.1
20210927184059 81 260 5.0 12.0 0.00 0.00 0.00 46 1017.2
20210927183552 81 271 5.0 12.0 0.00 0.00 0.00 46 1017.3
20210927183138 81 261 6.0 12.0 0.00 0.00 0.00 46 1017.4
20210927182553 82 249 5.0 9.0 0.00 0.00 0.00 46 1017.4
20210927182052 81 238 1.0 11.0 0.00 0.00 0.00 47 1017.5
20210927181730 81 277 6.0 10.0 0.00 0.00 0.00 47 1017.6
20210927181050 82 277 2.0 12.0 0.00 0.00 0.00 49 1017.7
20210927180551 81 209 4.0 12.0 0.00 0.00 0.00 47 1017.7
20210927180106 81 275 2.0 9.0 0.00 0.00 0.00 50 1017.8
20210927175551 81 167 3.0 11.0 0.00 0.00 0.00 48 1017.9
20210927175048 81 268 3.0 9.0 0.00 0.00 0.00 51 1017.9
20210927174557 82 277 3.0 10.0 0.00 0.00 0.00 48 1017.9
20210927174053 82 251 5.0 10.0 0.00 0.00 0.00 47 1018.1
20210927173545 81 196 3.0 8.0 0.00 0.00 0.00 48 1018.1
20210927173142 81 275 6.0 10.0 0.00 0.00 0.00 48 1018.2
20210927172543 82 259 3.0 12.0 0.00 0.00 0.00 51 1018.2
20210927172047 82 265 4.0 11.0 0.00 0.00 0.00 49 1018.3
20210927171617 81 272 3.0 8.0 0.00 0.00 0.00 50 1018.4
20210927171040 81 277 3.0 9.0 0.00 0.00 0.00 49 1018.5
20210927170541 81 263 5.0 12.0 0.00 0.00 0.00 50 1018.5
20210927170118 81 228 4.0 12.0 0.00 0.00 0.00 52 1018.5
20210927165544 81 244 4.0 9.0 0.00 0.00 0.00 46 1018.6
20210927165039 81 177 3.0 7.0 0.00 0.00 0.00 50 1018.8
20210927164557 81 200 3.0 7.0 0.00 0.00 0.00 48 1018.7
20210927164034 80 242 1.0 12.0 0.00 0.00 0.00 52 1018.8
20210927163546 80 189 5.0 12.0 0.00 0.00 0.00 50 1018.9
20210927163200 80 252 3.0 11.0 0.00 0.00 0.00 52 1018.9
20210927162533 79 190 2.0 11.0 0.00 0.00 0.00 55 1019.0
20210927162031 79 252 4.0 9.0 0.00 0.00 0.00 55 1019.0
20210927161611 78 242 4.0 9.0 0.00 0.00 0.00 54 1019.0
20210927161030 78 233 4.0 10.0 0.00 0.00 0.00 54 1019.1
20210927160529 78 241 6.0 10.0 0.00 0.00 0.00 53 1019.2
20210927160057 78 275 4.0 9.0 0.00 0.00 0.00 54 1019.3
20210927155527 77 282 6.0 11.0 0.00 0.00 0.00 55 1019.3
20210927155026 77 252 7.0 11.0 0.00 0.00 0.00 55 1019.4
20210927154552 77 255 3.0 8.0 0.00 0.00 0.00 57 1019.4
20210927154026 77 225 4.0 8.0 0.00 0.00 0.00 59 1019.5
20210927153522 76 241 2.0 6.0 0.00 0.00 0.00 60 1019.5
20210927153031 76 272 4.0 6.0 0.00 0.00 0.00 58 1019.6
20210927152520 75 263 2.0 6.0 0.00 0.00 0.00 63 1019.6
20210927152035 75 261 3.0 6.0 0.00 0.00 0.00 62 1019.6
20210927151537 75 275 3.0 7.0 0.00 0.00 0.00 62 1019.6
20210927151018 74 273 3.0 7.0 0.00 0.00 0.00 62 1019.6
20210927150515 74 260 3.0 10.0 0.00 0.00 0.00 62 1019.7
20210927150021 73 275 5.0 10.0 0.00 0.00 0.00 61 1019.7
20210927145518 73 289 7.0 9.0 0.00 0.00 0.00 61 1019.7
20210927145016 72 258 4.0 9.0 0.00 0.00 0.00 62 1019.8
20210927144527 72 222 5.0 8.0 0.00 0.00 0.00 63 1019.8
20210927144008 72 254 5.0 9.0 0.00 0.00 0.00 64 1019.8
20210927143523 72 270 5.0 10.0 0.00 0.00 0.00 64 1019.8
20210927143010 71 238 5.0 10.0 0.00 0.00 0.00 64 1019.9
20210927142511 71 241 5.0 10.0 0.00 0.00 0.00 64 1019.9
20210927142006 71 266 4.0 9.0 0.00 0.00 0.00 66 1019.9
20210927141506 71 252 6.0 9.0 0.00 0.00 0.00 64 1019.9
20210927141005 71 257 5.0 9.0 0.00 0.00 0.00 66 1019.9
20210927140504 71 261 5.0 9.0 0.00 0.00 0.00 67 1019.9
20210927140004 70 234 3.0 9.0 0.00 0.00 0.00 69 1019.9
20210927135506 70 243 2.0 8.0 0.00 0.00 0.00 69 1019.9
20210927135002 70 273 5.0 8.0 0.00 0.00 0.00 69 1019.9
20210927134634 69 217 3.0 6.0 0.00 0.00 0.00 68 1019.9
20210927134059 69 244 2.0 6.0 0.00 0.00 0.00 71 1019.9
20210927133559 69 242 2.0 6.0 0.00 0.00 0.00 69 1020.0
20210927133158 69 232 2.0 6.0 0.00 0.00 0.00 70 1019.9
20210927132556 68 263 1.0 6.0 0.00 0.00 0.00 71 1019.9
20210927132055 68 241 2.0 6.0 0.00 0.00 0.00 72 1019.9
20210927131613 68 250 2.0 5.0 0.00 0.00 0.00 73 1019.9
20210927131108 68 254 0.0 4.0 0.00 0.00 0.00 77 1020.0
20210927130600 68 254 0.0 3.0 0.00 0.00 0.00 75 1019.9
20210927130318 67 254 0.0 4.0 0.00 0.00 0.00 77 1019.9
20210927125602 67 254 0.0 5.0 0.00 0.00 0.00 78 1019.9
20210927125058 66 254 1.0 6.0 0.00 0.00 0.00 78 1019.9
20210927124603 66 243 1.0 6.0 0.00 0.00 0.00 78 1019.9
20210927124047 65 246 1.0 5.0 0.00 0.00 0.00 79 1019.9
20210927123545 65 243 1.0 5.0 0.00 0.00 0.00 80 1019.9
20210927123150 64 241 2.0 5.0 0.00 0.00 0.00 80 1019.8
20210927122543 64 240 2.0 5.0 0.00 0.00 0.00 82 1019.9
20210927122042 63 235 1.0 5.0 0.00 0.00 0.00 84 1019.8
20210927121625 63 234 1.0 5.0 0.00 0.00 0.00 85 1019.8
20210927121039 62 235 1.0 5.0 0.00 0.00 0.00 87 1019.9
20210927120538 61 234 0.0 5.0 0.00 0.00 0.00 88 1019.9
20210927120226 61 232 1.0 6.0 0.00 0.00 0.00 90 1019.8
20210927115535 60 232 3.0 6.0 0.00 0.00 0.00 92 1019.9
20210927115034 59 235 1.0 5.0 0.00 0.00 0.00 94 1019.9
20210927114542 59 250 0.0 4.0 0.00 0.00 0.00 95 1019.8
20210927114032 58 250 0.0 3.0 0.00 0.00 0.00 95 1019.8
20210927113531 57 266 0.0 5.0 0.00 0.00 0.00 96 1019.8
20210927113047 57 266 0.0 6.0 0.00 0.00 0.00 96 1019.7
20210927112530 57 246 2.0 6.0 0.00 0.00 0.00 97 1019.6
20210927112036 56 240 1.0 5.0 0.00 0.00 0.00 97 1019.6
20210927111545 55 241 0.0 5.0 0.00 0.00 0.00 97 1019.6
20210927111028 55 240 0.0 4.0 0.00 0.00 0.00 97 1019.6
20210927110528 55 234 0.0 2.0 0.00 0.00 0.00 97 1019.6
20210927110029 55 234 0.0 2.0 0.00 0.00 0.00 97 1019.5
20210927105531 55 234 0.0 0.0 0.00 0.00 0.00 97 1019.5
20210927105027 55 234 0.0 0.0 0.00 0.00 0.00 97 1019.5
20210927104553 54 234 0.0 0.0 0.00 0.00 0.00 97 1019.5
20210927104037 54 234 0.0 0.0 0.00 0.00 0.00 97 1019.5
20210927103530 54 234 0.0 0.0 0.00 0.00 0.00 97 1019.5
20210927103027 54 234 0.0 0.0 0.00 0.00 0.00 97 1019.4
20210927102524 55 234 0.0 0.0 0.00 0.00 0.00 97 1019.4
20210927101541 55 234 0.0 0.0 0.00 0.00 0.00 97 1019.3
20210927101038 55 234 0.0 0.0 0.00 0.00 0.00 97 1019.2
20210927100521 55 234 0.0 0.0 0.00 0.00 0.00 97 1019.2
20210927100054 55 234 0.0 0.0 0.00 0.00 0.00 97 1019.1
20210927095544 55 234 0.0 0.0 0.00 0.00 0.00 97 1019.1
20210927095029 55 234 0.0 0.0 0.00 0.00 0.00 97 1019.0
20210927094612 55 234 0.0 0.0 0.00 0.00 0.00 97 1019.0
20210927094026 55 234 0.0 0.0 0.00 0.00 0.00 97 1019.0
20210927093518 55 234 0.0 0.0 0.00 0.00 0.00 97 1019.0
20210927093049 55 234 0.0 0.0 0.00 0.00 0.00 97 1019.0
20210927092524 55 234 0.0 0.0 0.00 0.00 0.00 97 1018.9
20210927092026 55 234 0.0 0.0 0.00 0.00 0.00 96 1019.0
20210927091534 55 234 0.0 0.0 0.00 0.00 0.00 96 1019.0
20210927091018 55 234 0.0 0.0 0.00 0.00 0.00 96 1019.0
20210927090548 55 234 0.0 0.0 0.00 0.00 0.00 96 1018.9
20210927090019 55 234 0.0 0.0 0.00 0.00 0.00 96 1018.8
20210927085527 55 234 0.0 0.0 0.00 0.00 0.00 96 1018.8
20210927085017 55 234 0.0 0.0 0.00 0.00 0.00 96 1018.7
20210927084530 55 234 0.0 0.0 0.00 0.00 0.00 96 1018.7
20210927084016 55 234 0.0 0.0 0.00 0.00 0.00 96 1018.7
20210927083515 55 234 0.0 0.0 0.00 0.00 0.00 96 1018.7
20210927083038 55 234 0.0 0.0 0.00 0.00 0.00 96 1018.6
20210927082515 55 234 0.0 0.0 0.00 0.00 0.00 96 1018.6
20210927082033 55 234 0.0 0.0 0.00 0.00 0.00 96 1018.6
20210927081529 56 234 0.0 0.0 0.00 0.00 0.00 96 1018.5
20210927081033 56 234 0.0 0.0 0.00 0.00 0.00 96 1018.6
20210927080518 56 234 0.0 0.0 0.00 0.00 0.00 96 1018.6
20210927080029 56 234 0.0 0.0 0.00 0.00 0.00 96 1018.6
20210927075518 56 234 0.0 0.0 0.00 0.00 0.00 96 1018.6
20210927075017 56 234 0.0 0.0 0.00 0.00 0.00 96 1018.5
20210927074527 56 234 0.0 0.0 0.00 0.00 0.00 96 1018.6
20210927074011 56 234 0.0 0.0 0.00 0.00 0.00 96 1018.6
20210927073510 56 234 0.0 2.0 0.00 0.00 0.00 96 1018.6
20210927073021 56 234 0.0 2.0 0.00 0.00 0.00 96 1018.7
20210927072509 56 234 0.0 0.0 0.00 0.00 0.00 96 1018.7
20210927072009 56 234 0.0 0.0 0.00 0.00 0.00 96 1018.7
20210927071533 57 234 0.0 0.0 0.00 0.00 0.00 96 1018.7
20210927071014 57 234 0.0 0.0 0.00 0.00 0.00 96 1018.7
20210927070513 57 234 0.0 2.0 0.00 0.00 0.00 96 1018.7
20210927070010 57 234 0.0 2.0 0.00 0.00 0.00 96 1018.8
20210927065512 56 234 0.0 2.0 0.00 0.00 0.00 95 1018.8
20210927065007 56 234 0.0 0.0 0.00 0.00 0.00 95 1018.7
20210927064507 56 234 0.0 1.0 0.00 0.00 0.00 95 1018.8
20210927064006 56 234 0.0 1.0 0.00 0.00 0.00 95 1018.9
20210927063507 57 234 0.0 1.0 0.00 0.00 0.00 95 1018.8
20210927063011 57 234 0.0 1.0 0.00 0.00 0.00 95 1018.8
20210927062511 57 234 0.0 0.0 0.00 0.00 0.00 95 1018.9
20210927062010 57 234 0.0 0.0 0.00 0.00 0.00 95 1018.8
20210927061504 57 234 0.0 0.0 0.00 0.00 0.00 95 1018.9
20210927061004 57 234 0.0 0.0 0.00 0.00 0.00 95 1018.9
20210927060503 57 234 0.0 0.0 0.00 0.00 0.00 95 1018.9
20210927060003 57 234 0.0 2.0 0.00 0.00 0.00 95 1018.9
20210927055509 57 234 0.0 4.0 0.00 0.00 0.00 95 1018.9
20210927055005 57 235 2.0 3.0 0.00 0.00 0.00 95 1018.9
20210927054502 57 247 0.0 0.0 0.00 0.00 0.00 95 1018.8
20210927054001 57 247 0.0 0.0 0.00 0.00 0.00 94 1018.8
20210927053631 58 247 0.0 0.0 0.00 0.00 0.00 94 1018.9
20210927053142 58 247 0.0 0.0 0.00 0.00 0.00 94 1018.9
20210927052605 58 247 0.0 2.0 0.00 0.00 0.00 95 1018.9
20210927052059 58 247 0.0 2.0 0.00 0.00 0.00 95 1018.9
20210927051622 58 247 0.0 2.0 0.00 0.00 0.00 94 1018.8
20210927051113 58 247 0.0 0.0 0.00 0.00 0.00 94 1018.8
20210927050606 58 247 0.0 0.0 0.00 0.00 0.00 95 1018.8
20210927050202 58 247 0.0 1.0 0.00 0.00 0.00 95 1018.9
20210927045601 58 247 0.0 2.0 0.00 0.00 0.00 94 1018.8
20210927044649 58 247 0.0 0.0 0.00 0.00 0.00 94 1018.8
20210927044056 58 247 0.0 0.0 0.00 0.00 0.00 93 1018.7
20210927043559 58 247 0.0 0.0 0.00 0.00 0.00 93 1018.7
20210927043120 58 247 0.0 0.0 0.00 0.00 0.00 93 1018.8
20210927042611 58 247 0.0 0.0 0.00 0.00 0.00 93 1018.8
20210927042054 58 247 0.0 0.0 0.00 0.00 0.00 93 1018.8
20210927041605 59 247 0.0 0.0 0.00 0.00 0.00 93 1018.8
20210927041053 58 247 0.0 2.0 0.00 0.00 0.00 93 1018.8
20210927040551 58 247 1.0 2.0 0.00 0.00 0.00 93 1018.8
20210927040114 58 247 0.0 1.0 0.00 0.00 0.00 92 1018.8
20210927035552 58 247 0.0 1.0 0.00 0.00 0.00 92 1018.8
20210927035050 58 247 0.0 1.0 0.00 0.00 0.00 92 1018.8
20210927034646 58 247 0.0 0.0 0.00 0.00 0.00 92 1018.8
20210927034047 59 247 0.0 0.0 0.00 0.00 0.00 92 1018.8
20210927033550 59 247 0.0 0.0 0.00 0.00 0.00 92 1018.8
20210927033239 59 247 0.0 2.0 0.00 0.00 0.00 92 1018.8
20210927032549 59 247 1.0 2.0 0.00 0.00 0.00 92 1018.9
20210927032046 59 247 0.0 0.0 0.00 0.00 0.00 92 1018.8
20210927031627 59 247 0.0 0.0 0.00 0.00 0.00 91 1018.8
20210927031044 59 247 0.0 0.0 0.00 0.00 0.00 91 1018.8
20210927030545 59 247 0.0 0.0 0.00 0.00 0.00 90 1018.7
20210927030112 59 247 0.0 0.0 0.00 0.00 0.00 90 1018.7
20210927025543 60 247 0.0 0.0 0.00 0.00 0.00 90 1018.8
20210927025043 60 247 0.0 0.0 0.00 0.00 0.00 90 1018.7
20210927024615 60 247 0.0 0.0 0.00 0.00 0.00 89 1018.7
20210927024042 60 247 0.0 0.0 0.00 0.00 0.00 89 1018.7
20210927023541 60 247 0.0 0.0 0.00 0.00 0.00 88 1018.7
20210927023110 60 247 0.0 0.0 0.00 0.00 0.00 87 1018.7
20210927022546 60 247 0.0 0.0 0.00 0.00 0.00 87 1018.7
20210927022040 60 247 0.0 0.0 0.00 0.00 0.00 87 1018.7
20210927021624 61 247 0.0 1.0 0.00 0.00 0.00 87 1018.7
20210927021040 61 247 0.0 2.0 0.00 0.00 0.00 87 1018.6
20210927020552 61 247 1.0 2.0 0.00 0.00 0.00 88 1018.6
20210927020107 61 247 0.0 0.0 0.00 0.00 0.00 86 1018.6
20210927015609 61 247 0.0 0.0 0.00 0.00 0.00 86 1018.5
20210927015037 61 247 0.0 0.0 0.00 0.00 0.00 85 1018.5
20210927014601 62 247 0.0 0.0 0.00 0.00 0.00 85 1018.5
20210927014044 62 247 0.0 0.0 0.00 0.00 0.00 85 1018.5
20210927013547 62 247 0.0 0.0 0.00 0.00 0.00 84 1018.5
20210927013125 62 247 0.0 0.0 0.00 0.00 0.00 83 1018.5
20210927012553 62 247 0.0 0.0 0.00 0.00 0.00 82 1018.6
20210927012036 62 247 0.0 0.0 0.00 0.00 0.00 81 1018.6
20210927011604 63 247 0.0 1.0 0.00 0.00 0.00 80 1018.5
20210927011036 63 247 0.0 2.0 0.00 0.00 0.00 80 1018.5
20210927010536 63 247 1.0 2.0 0.00 0.00 0.00 80 1018.4
20210927010057 63 247 0.0 0.0 0.00 0.00 0.00 81 1018.4
20210927005540 63 247 0.0 1.0 0.00 0.00 0.00 80 1018.3
20210927005036 64 247 0.0 1.0 0.00 0.00 0.00 79 1018.3
20210927004613 64 247 0.0 0.0 0.00 0.00 0.00 77 1018.2
20210927004035 64 247 0.0 0.0 0.00 0.00 0.00 76 1018.1
20210927003535 64 247 0.0 0.0 0.00 0.00 0.00 75 1018.0
20210927003102 65 247 0.0 0.0 0.00 0.00 0.00 75 1018.1
20210927002536 65 247 0.0 0.0 0.00 0.00 0.00 75 1018.1
20210927002038 65 247 0.0 0.0 0.00 0.00 0.00 74 1017.9
20210927001659 66 247 0.0 0.0 0.00 0.00 0.00 73 1017.9
20210927001034 66 247 0.0 0.0 0.00 0.00 0.00 72 1017.9
20210927000537 66 247 0.0 0.0 0.00 0.00 0.00 71 1017.9
20210927000041 67 247 0.0 1.0 0.00 0.00 0.00 71 1017.8
20210926235554 67 247 0.0 1.0 0.00 0.00 0.00 69 1017.7
20210926235033 68 247 0.0 4.0 0.00 0.00 0.00 68 1017.6
20210926234548 68 247 0.0 4.0 0.00 0.00 0.00 66 1017.5
20210926234042 69 246 0.0 4.0 0.00 0.00 0.00 65 1017.4
20210926233536 69 246 0.0 4.0 0.00 0.00 0.00 63 1017.4
20210926233119 69 246 1.0 4.0 0.00 0.00 0.00 63 1017.4
20210926232536 70 246 0.0 2.0 0.00 0.00 0.00 61 1017.4
20210926232039 70 246 0.0 2.0 0.00 0.00 0.00 61 1017.4
20210926231535 71 309 0.0 2.0 0.00 0.00 0.00 61 1017.4
20210926231041 71 315 0.0 4.0 0.00 0.00 0.00 59 1017.4
20210926230533 72 319 0.0 4.0 0.00 0.00 0.00 57 1017.3
20210926230102 72 323 0.0 7.0 0.00 0.00 0.00 58 1017.3
20210926225536 72 324 1.0 7.0 0.00 0.00 0.00 54 1017.2
20210926225041 72 291 2.0 7.0 0.00 0.00 0.00 54 1017.2
20210926224552 73 269 3.0 9.0 0.00 0.00 0.00 54 1017.1
20210926224036 73 284 3.0 9.0 0.00 0.00 0.00 53 1017.0
20210926223529 73 281 4.0 8.0 0.00 0.00 0.00 53 1017.0
20210926223059 74 279 4.0 8.0 0.00 0.00 0.00 52 1017.0
20210926222530 74 287 5.0 9.0 0.00 0.00 0.00 54 1017.0
20210926222030 74 278 4.0 10.0 0.00 0.00 0.00 52 1017.0
20210926221627 74 271 6.0 10.0 0.00 0.00 0.00 52 1017.0
20210926221032 75 282 5.0 9.0 0.00 0.00 0.00 52 1016.9
20210926220534 75 287 5.0 11.0 0.00 0.00 0.00 52 1016.8
20210926220039 75 307 5.0 11.0 0.00 0.00 0.00 51 1016.8
20210926215528 75 307 3.0 8.0 0.00 0.00 0.00 51 1016.8
20210926215028 76 298 4.0 10.0 0.00 0.00 0.00 50 1016.7
20210926214538 76 265 6.0 11.0 0.00 0.00 0.00 51 1016.7
20210926214027 76 276 7.0 11.0 0.00 0.00 0.00 50 1016.7
20210926213534 77 266 6.0 11.0 0.00 0.00 0.00 50 1016.7
20210926213046 77 294 5.0 10.0 0.00 0.00 0.00 49 1016.7
20210926212532 77 347 3.0 10.0 0.00 0.00 0.00 52 1016.6
20210926212027 77 304 5.0 10.0 0.00 0.00 0.00 50 1016.5
20210926211606 77 281 4.0 12.0 0.00 0.00 0.00 50 1016.5
20210926211030 77 268 6.0 12.0 0.00 0.00 0.00 49 1016.5
20210926210534 77 273 5.0 10.0 0.00 0.00 0.00 51 1016.5
20210926210044 77 240 4.0 12.0 0.00 0.00 0.00 51 1016.4
20210926205526 77 286 7.0 12.0 0.00 0.00 0.00 49 1016.4
20210926205026 77 274 6.0 11.0 0.00 0.00 0.00 50 1016.4
20210926204625 77 296 5.0 12.0 0.00 0.00 0.00 50 1016.4
20210926204024 77 275 5.0 12.0 0.00 0.00 0.00 50 1016.4
20210926203538 77 307 7.0 13.0 0.00 0.00 0.00 50 1016.4
20210926203030 77 290 5.0 13.0 0.00 0.00 0.00 49 1016.5
20210926202523 77 276 3.0 11.0 0.00 0.00 0.00 48 1016.5
20210926202029 77 275 7.0 11.0 0.00 0.00 0.00 50 1016.5
20210926201608 77 240 5.0 11.0 0.00 0.00 0.00 48 1016.4
20210926201032 76 293 5.0 11.0 0.00 0.00 0.00 49 1016.4
20210926200532 76 268 7.0 12.0 0.00 0.00 0.00 49 1016.4
20210926200025 76 279 8.0 13.0 0.00 0.00 0.00 52 1016.4
20210926195530 76 240 5.0 11.0 0.00 0.00 0.00 52 1016.4
20210926195042 76 236 5.0 9.0 0.00 0.00 0.00 50 1016.4
20210926194549 76 245 4.0 12.0 0.00 0.00 0.00 49 1016.4
20210926194020 76 298 8.0 13.0 0.00 0.00 0.00 52 1016.5
20210926193524 76 295 8.0 13.0 0.00 0.00 0.00 51 1016.4
20210926193022 75 294 5.0 13.0 0.00 0.00 0.00 52 1016.5
20210926192519 75 277 8.0 13.0 0.00 0.00 0.00 52 1016.6
20210926192018 75 259 7.0 11.0 0.00 0.00 0.00 50 1016.6
20210926191542 75 275 7.0 12.0 0.00 0.00 0.00 52 1016.7
20210926191018 75 287 7.0 13.0 0.00 0.00 0.00 50 1016.7
20210926190517 75 251 7.0 13.0 0.00 0.00 0.00 49 1016.7
20210926190045 75 246 7.0 14.0 0.00 0.00 0.00 52 1016.7